Location: Krakow
(50.0830°N, 19.9170°E)
Time: 03:00:21
(UTC+01:00)

Courier 1B Rocket - Pass Details

Date: 19 December 2023
Orbit: 920 x 1202 km, 28.2° (Epoch: 01 March)

Event Time Altitude Azimuth Distance (km) Brightness Sun altitude
Rises 06:43:59 0° 219° (SW) 4,089 8.1 -7.8°
Reaches altitude 10° 06:49:18 10° 189° (S) 3,109 7.9 -7.0°
Maximum altitude 06:51:42 12° 171° (S) 2,970 8.1 -6.7°
Drops below altitude 10° 06:54:05 10° 153° (SSE) 3,075 8.6 -6.4°
Sets 06:59:15 0° 123° (ESE) 3,982 11.1 -5.6°
